Weather in Boriskovo

Russia / Kaluga Oblast     55°09′05″N   36°56′41″E
В апреле 2022 года жителям России запретили посещать сайт meteo.paraplan.net по решению Генеральной прокуратуры. Аудитория сайта уменьшилась в 10 раз. Владельцы сайта не видят смысла в поддержке погодного сервера в таких условиях. Сайт будет закрыт в октябре.
temp.,
°C
wind,
m/s
gust,
m/s
humid.,
%
clouds,
%
prec.,
mm/h
press.,
hPa
HPBL,
m
30 september, fri
fri3000:00+7s2795100 0.0 1014120
03:00+7sse2896100 0.0 1014174
06:00+7sse2996100 0.0 1015183
09:00+11s31085100 0.0 1015332
12:00+14s4878100 0.0 1014544
15:00+14s478768 0.1 1015580
18:00+13s3694100 0.0 1015297
21:00+12s269899 0.1 1016217
1 october, sat
sat100:00+12s2399100 0.0 1016117
03:00+12w1198100 0.0 101622
06:00+12e1199100 0.0 101619
09:00+12se1296100 0.0 1015112
12:00+14se2387100 0.0 1014363
15:00+16se258199 0.2 1011421
18:00+14se3894100 1.3 1009165
21:00+14ssw41194100 2.6 1007522
2 october, sun
sun200:00+12sw51190100 0.1 1007768
03:00+9sw51184100 0.2 10071150
06:00+9wsw51189100 0.1 1007885
09:00+9wsw51086100 0.1 1008916
12:00+10wsw4776100 0.0 1009837
15:00+11w246998 0.1 1008883
18:00+9n2382100 0.0 100891
21:00+7ne3692100 0.0 1006185
3 october, mon
mon300:00+8ne4994100 2.7 1004517
03:00+8ne51296100 9.9 999570
06:00+9ne4998100 4.2 996256
09:00+13se41298100 9.3 993735
12:00+14se41098100 6.6 992658
15:00+9sw4796100 11.5 995549
18:00+7sw5993100 0.1 998865
21:00+7sw5893100 0.3 10011116
4 october, tue
tue400:00+6ssw5894100 1.7 10031143
03:00+6sw4994100 3.4 10051009
06:00+6ssw5119241 0.0 1007665
09:00+7s4119158 0.0 1009522
12:00+11ssw597982 0.1 10101051
15:00+11ssw598159 0.9 1012964
18:00+9s4108893 0.4 1013607
21:00+9s4119259 0.6 1014599